Time,TemperatureF,DewpointF,PressureIn,WindDirection,WindDirectionDegrees,WindSpeedMPH,WindSpeedGustMPH,Humidity,HourlyPrecipIn,Conditions,Clouds,dailyrainin,SoftwareType,DateUTC
2013-05-06 00:01:00,53.2,50.3,29.88,WNW,293,5.0,5.0,90,0.01,RA,,0.00,WeatherDisplay:10.37,2013-05-06 04:01:00,
2013-05-06 00:02:00,53.2,50.3,29.88,NE,47,5.0,5.0,90,0.01,-RA,,0.00,WeatherDisplay:10.37,2013-05-06 04:02:00,
2013-05-06 00:04:00,53.3,50.4,29.88,SE,137,4.0,4.0,90,0.01,-RA,,0.00,WeatherDisplay:10.37,2013-05-06 04:04:00,
2013-05-06 00:06:00,53.3,50.4,29.88,SSE,162,4.0,4.0,90,0.01,-RA,,0.00,WeatherDisplay:10.37,2013-05-06 04:06:00,
2013-05-06 00:11:00,53.3,50.4,29.87,SSE,151,5.8,5.8,90,0.01,-RA,,0.00,WeatherDisplay:10.37,2013-05-06 04:11:00,
2013-05-06 00:16:00,53.3,50.4,29.87,North,2,5.8,5.8,90,0.00,-RA,,0.00,WeatherDisplay:10.37,2013-05-06 04:16:00,
2013-05-06 00:21:00,53.4,50.5,29.87,West,260,3.5,3.5,90,0.00,-RA,,0.00,WeatherDisplay:10.37,2013-05-06 04:21:00,
2013-05-06 00:26:00,53.4,50.5,29.87,North,351,5.0,5.0,90,0.00,-RA,,0.00,WeatherDisplay:10.37,2013-05-06 04:26:00,
2013-05-06 00:31:00,53.4,50.5,29.87,SW,226,8.1,8.1,90,0.00,-RA,,0.00,WeatherDisplay:10.37,2013-05-06 04:31:00,
2013-05-06 00:36:00,53.4,50.5,29.87,NW,320,10.4,10.4,90,0.00,-RA,,0.00,WeatherDisplay:10.37,2013-05-06 04:36:00,
2013-05-06 00:41:00,53.5,50.6,29.88,NE,42,5.8,5.8,90,0.00,-RA,,0.00,WeatherDisplay:10.37,2013-05-06 04:41:00,
2013-05-06 00:46:00,53.6,50.7,29.88,SSW,205,5.0,5.0,90,0.00,-RA,,0.00,WeatherDisplay:10.37,2013-05-06 04:46:00,
2013-05-06 00:51:00,53.7,50.5,29.87,West,269,4.6,4.6,89,0.00,-RA,,0.00,WeatherDisplay:10.37,2013-05-06 04:51:00,
2013-05-06 00:56:00,53.8,50.6,29.87,NNW,336,5.0,5.0,89,0.00,-RA,,0.00,WeatherDisplay:10.37,2013-05-06 04:56:00,
2013-05-06 01:01:00,53.9,50.7,29.87,NNE,19,6.0,6.0,89,0.00,BKN,,0.00,WeatherDisplay:10.37,2013-05-06 05:01:00,
2013-05-06 01:06:00,53.9,50.7,29.87,SSW,201,3.0,3.0,89,0.00,BKN,,0.00,WeatherDisplay:10.37,2013-05-06 05:06:00,
2013-05-06 01:11:00,53.9,50.7,29.87,NW,326,5.0,5.0,89,0.00,BKN,,0.00,WeatherDisplay:10.37,2013-05-06 05:11:00,
2013-05-06 01:16:00,54.0,50.8,29.86,SW,219,3.5,3.5,89,0.00,BKN,,0.00,WeatherDisplay:10.37,2013-05-06 05:16:00,
2013-05-06 01:21:00,54.1,50.9,29.86,SSW,199,4.0,4.0,89,0.00,BKN,,0.00,WeatherDisplay:10.37,2013-05-06 05:21:00,
2013-05-06 01:26:00,54.1,50.9,29.86,South,174,7.0,7.0,89,0.00,BKN,,0.00,WeatherDisplay:10.37,2013-05-06 05:26:00,
2013-05-06 01:31:00,54.1,50.9,29.86,NNW,343,4.6,4.6,89,0.00,BKN,,0.00,WeatherDisplay:10.37,2013-05-06 05:31:00,
2013-05-06 01:36:00,54.1,50.9,29.86,NNW,329,8.1,8.1,89,0.00,BKN,,0.00,WeatherDisplay:10.37,2013-05-06 05:36:00,
2013-05-06 01:41:00,54.1,50.6,29.86,ENE,63,4.6,4.6,88,0.00,BKN,,0.00,WeatherDisplay:10.37,2013-05-06 05:41:00,
2013-05-06 01:46:00,54.1,50.6,29.85,NNE,30,6.9,6.9,88,0.00,BKN,,0.00,WeatherDisplay:10.37,2013-05-06 05:46:00,
2013-05-06 01:51:00,54.1,50.6,29.85,NW,306,7.0,7.0,88,0.00,BKN,,0.00,WeatherDisplay:10.37,2013-05-06 05:51:00,
2013-05-06 01:56:00,54.1,50.6,29.85,East,82,6.0,6.0,88,0.00,BKN,,0.00,WeatherDisplay:10.37,2013-05-06 05:56:00,
2013-05-06 02:01:00,54.1,50.9,29.85,NNE,20,5.0,5.0,89,0.01,-RA,,0.01,WeatherDisplay:10.37,2013-05-06 06:01:00,
2013-05-06 02:06:00,54.1,50.9,29.85,NE,43,5.8,5.8,89,0.01,-RA,,0.01,WeatherDisplay:10.37,2013-05-06 06:06:00,
2013-05-06 02:11:00,54.1,50.9,29.85,SW,218,8.1,8.1,89,0.01,-RA,,0.01,WeatherDisplay:10.37,2013-05-06 06:11:00,
2013-05-06 02:16:00,54.1,50.9,29.85,ENE,72,5.0,5.0,89,0.01,-RA,,0.01,WeatherDisplay:10.37,2013-05-06 06:16:00,
2013-05-06 02:21:00,54.2,50.7,29.85,ENE,68,7.0,7.0,88,0.01,-RA,,0.01,WeatherDisplay:10.37,2013-05-06 06:21:00,
2013-05-06 02:26:00,54.2,50.7,29.86,ENE,63,6.0,6.0,88,0.01,-RA,,0.01,WeatherDisplay:10.37,2013-05-06 06:26:00,
2013-05-06 02:31:00,54.2,50.7,29.86,SE,127,10.0,10.0,88,0.01,-RA,,0.01,WeatherDisplay:10.37,2013-05-06 06:31:00,
2013-05-06 02:36:00,54.2,50.7,29.85,NNE,12,5.8,5.8,88,0.01,-RA,,0.01,WeatherDisplay:10.37,2013-05-06 06:36:00,
2013-05-06 02:41:00,54.2,50.7,29.85,WSW,240,6.0,6.0,88,0.01,-RA,,0.01,WeatherDisplay:10.37,2013-05-06 06:41:00,
2013-05-06 02:46:00,54.1,50.9,29.85,NNE,16,8.1,8.1,89,0.01,-RA,,0.01,WeatherDisplay:10.37,2013-05-06 06:46:00,
2013-05-06 02:51:00,54.1,50.9,29.85,North,7,4.6,4.6,89,0.02,-RA,,0.02,WeatherDisplay:10.37,2013-05-06 06:51:00,
2013-05-06 02:56:00,54.1,50.9,29.85,SE,125,2.3,2.3,89,0.03,-RA,,0.03,WeatherDisplay:10.37,2013-05-06 06:56:00,
2013-05-06 03:01:00,54.0,50.8,29.85,South,172,4.6,4.6,89,0.02,RA,,0.03,WeatherDisplay:10.37,2013-05-06 07:01:00,
2013-05-06 03:06:00,54.0,50.8,29.85,ESE,116,5.0,5.0,89,0.02,OVC,,0.03,WeatherDisplay:10.37,2013-05-06 07:06:00,
2013-05-06 03:11:00,54.0,50.8,29.84,ENE,70,4.6,4.6,89,0.02,OVC,,0.03,WeatherDisplay:10.37,2013-05-06 07:11:00,
2013-05-06 03:16:00,53.9,50.7,29.84,SSW,201,4.0,4.0,89,0.02,OVC,,0.03,WeatherDisplay:10.37,2013-05-06 07:16:00,
2013-05-06 03:22:00,53.9,50.7,29.84,ENE,67,8.0,8.0,89,0.02,OVC,,0.03,WeatherDisplay:10.37,2013-05-06 07:22:00,
2013-05-06 03:27:00,53.9,50.7,29.84,NE,45,4.0,4.0,89,0.02,OVC,,0.03,WeatherDisplay:10.37,2013-05-06 07:27:00,
2013-05-06 03:32:00,53.9,50.7,29.84,NNE,28,5.0,5.0,89,0.02,OVC,,0.03,WeatherDisplay:10.37,2013-05-06 07:32:00,
2013-05-06 03:37:00,53.9,50.7,29.84,NNW,334,4.0,4.0,89,0.02,OVC,,0.03,WeatherDisplay:10.37,2013-05-06 07:37:00,
2013-05-06 03:42:00,53.9,51.0,29.84,NE,39,6.0,6.0,90,0.02,OVC,,0.03,WeatherDisplay:10.37,2013-05-06 07:42:00,
2013-05-06 03:47:00,54.0,50.8,29.84,NNW,337,7.0,7.0,89,0.02,OVC,,0.03,WeatherDisplay:10.37,2013-05-06 07:47:00,
2013-05-06 03:52:00,54.0,50.8,29.84,SE,143,5.0,5.0,89,0.01,OVC,,0.03,WeatherDisplay:10.37,2013-05-06 07:52:00,
2013-05-06 03:57:00,54.0,50.8,29.84,NE,53,5.0,5.0,89,0.00,OVC,,0.03,WeatherDisplay:10.37,2013-05-06 07:57:00,
2013-05-06 04:02:00,53.9,50.7,29.84,ENE,76,6.0,6.0,89,0.00,-RA,,0.03,WeatherDisplay:10.37,2013-05-06 08:02:00,
2013-05-06 04:07:00,53.9,50.7,29.83,ENE,60,12.0,12.0,89,0.00,-RA,,0.03,WeatherDisplay:10.37,2013-05-06 08:07:00,
2013-05-06 04:12:00,54.0,50.8,29.83,ENE,78,7.0,7.0,89,0.00,-RA,,0.03,WeatherDisplay:10.37,2013-05-06 08:12:00,
2013-05-06 04:17:00,54.0,50.8,29.83,North,2,5.0,5.0,89,0.00,-RA,,0.03,WeatherDisplay:10.37,2013-05-06 08:17:00,
2013-05-06 04:22:00,53.9,50.7,29.83,NE,43,8.1,8.1,89,0.00,-RA,,0.03,WeatherDisplay:10.37,2013-05-06 08:22:00,
2013-05-06 04:27:00,53.9,50.7,29.83,North,355,4.6,4.6,89,0.00,-RA,,0.03,WeatherDisplay:10.37,2013-05-06 08:27:00,
2013-05-06 04:32:00,53.9,50.7,29.84,ENE,62,4.6,4.6,89,0.00,-RA,,0.03,WeatherDisplay:10.37,2013-05-06 08:32:00,
2013-05-06 04:37:00,53.9,50.7,29.83,North,357,8.1,8.1,89,0.00,-RA,,0.03,WeatherDisplay:10.37,2013-05-06 08:37:00,
2013-05-06 04:42:00,53.9,50.7,29.83,NNW,345,11.0,11.0,89,0.00,-RA,,0.03,WeatherDisplay:10.37,2013-05-06 08:42:00,
2013-05-06 04:47:00,53.9,50.7,29.84,NW,318,6.0,6.0,89,0.00,-RA,,0.03,WeatherDisplay:10.37,2013-05-06 08:47:00,
2013-05-06 04:52:00,53.8,50.6,29.84,South,182,5.0,5.0,89,0.00,-RA,,0.03,WeatherDisplay:10.37,2013-05-06 08:52:00,
2013-05-06 04:57:00,53.9,50.7,29.84,NNW,332,4.0,4.0,89,0.00,-RA,,0.03,WeatherDisplay:10.37,2013-05-06 08:57:00,
2013-05-06 05:02:00,53.9,50.7,29.84,NE,35,4.6,4.6,89,0.00,-RA,,0.04,WeatherDisplay:10.37,2013-05-06 09:02:00,
2013-05-06 05:07:00,53.8,50.6,29.83,NNE,24,3.5,3.5,89,0.01,-RA,,0.04,WeatherDisplay:10.37,2013-05-06 09:07:00,
2013-05-06 05:12:00,53.8,50.6,29.83,SSW,203,5.0,5.0,89,0.01,-RA,,0.04,WeatherDisplay:10.37,2013-05-06 09:12:00,
2013-05-06 05:17:00,53.7,50.5,29.83,North,7,7.0,7.0,89,0.01,-RA,,0.04,WeatherDisplay:10.37,2013-05-06 09:17:00,
2013-05-06 05:22:00,53.7,50.5,29.84,NNE,18,6.0,6.0,89,0.01,-RA,,0.04,WeatherDisplay:10.37,2013-05-06 09:22:00,
2013-05-06 05:27:00,53.8,50.6,29.84,North,7,8.1,8.1,89,0.01,-RA,,0.04,WeatherDisplay:10.37,2013-05-06 09:27:00,
2013-05-06 05:32:00,53.8,50.6,29.84,NNW,336,4.6,4.6,89,0.01,-RA,,0.04,WeatherDisplay:10.37,2013-05-06 09:32:00,
2013-05-06 05:37:00,53.8,50.6,29.84,NE,55,10.0,10.0,89,0.01,-RA,,0.04,WeatherDisplay:10.37,2013-05-06 09:37:00,
2013-05-06 05:42:00,53.8,50.6,29.84,East,99,6.0,6.0,89,0.01,-RA,,0.04,WeatherDisplay:10.37,2013-05-06 09:42:00,
2013-05-06 05:47:00,53.8,50.6,29.84,East,93,6.9,6.9,89,0.01,-RA,,0.04,WeatherDisplay:10.37,2013-05-06 09:47:00,
2013-05-06 05:52:00,53.7,50.5,29.84,ENE,69,8.0,8.0,89,0.01,-RA,,0.04,WeatherDisplay:10.37,2013-05-06 09:52:00,
2013-05-06 05:57:00,53.7,50.5,29.85,NNE,26,8.1,8.1,89,0.01,-RA,,0.04,WeatherDisplay:10.37,2013-05-06 09:57:00,
2013-05-06 06:02:00,53.7,50.5,29.84,NE,39,5.0,5.0,89,0.01,-RA,,0.04,WeatherDisplay:10.37,2013-05-06 10:02:00,
2013-05-06 06:07:00,53.7,50.5,29.84,ENE,76,8.1,8.1,89,0.00,-RA,,0.04,WeatherDisplay:10.37,2013-05-06 10:07:00,
2013-05-06 06:12:00,53.7,50.5,29.83,ENE,59,4.0,4.0,89,0.00,-RA,,0.04,WeatherDisplay:10.37,2013-05-06 10:12:00,
2013-05-06 06:17:00,53.7,50.5,29.84,NNW,347,6.0,6.0,89,0.00,-RA,,0.04,WeatherDisplay:10.37,2013-05-06 10:17:00,
2013-05-06 06:22:00,53.7,50.5,29.84,ENE,72,8.1,8.1,89,0.00,-RA,,0.04,WeatherDisplay:10.37,2013-05-06 10:22:00,
2013-05-06 06:27:00,53.8,50.6,29.85,SSW,199,4.0,4.0,89,0.00,-RA,,0.04,WeatherDisplay:10.37,2013-05-06 10:27:00,
2013-05-06 06:32:00,53.8,50.3,29.85,WSW,255,5.8,5.8,88,0.00,-RA,,0.04,WeatherDisplay:10.37,2013-05-06 10:32:00,
2013-05-06 06:37:00,53.8,50.3,29.85,NW,322,4.6,4.6,88,0.00,-RA,,0.04,WeatherDisplay:10.37,2013-05-06 10:37:00,
2013-05-06 06:42:00,53.9,50.4,29.86,NE,48,5.0,5.0,88,0.00,-RA,,0.04,WeatherDisplay:10.37,2013-05-06 10:42:00,
2013-05-06 06:47:00,53.9,50.4,29.86,ESE,121,8.1,8.1,88,0.00,-RA,,0.04,WeatherDisplay:10.37,2013-05-06 10:47:00,
2013-05-06 06:52:00,53.9,50.4,29.86,WNW,293,4.0,4.0,88,0.00,-RA,,0.04,WeatherDisplay:10.37,2013-05-06 10:52:00,
2013-05-06 06:57:00,53.9,50.4,29.86,NE,43,5.0,5.0,88,0.00,-RA,,0.04,WeatherDisplay:10.37,2013-05-06 10:57:00,
2013-05-06 07:02:00,53.9,50.4,29.86,East,84,4.0,4.0,88,0.00,-RA,,0.04,WeatherDisplay:10.37,2013-05-06 11:02:00,
2013-05-06 07:07:00,53.9,50.4,29.86,North,7,5.0,5.0,88,0.00,-RA,,0.04,WeatherDisplay:10.37,2013-05-06 11:07:00,
2013-05-06 07:12:00,54.0,50.5,29.86,NNE,26,3.5,3.5,88,0.00,-RA,,0.04,WeatherDisplay:10.37,2013-05-06 11:12:00,
2013-05-06 07:17:00,53.9,50.4,29.86,NW,309,4.0,4.0,88,0.00,-RA,,0.04,WeatherDisplay:10.37,2013-05-06 11:17:00,
2013-05-06 07:22:00,54.0,50.5,29.86,NW,324,6.0,6.0,88,0.00,-RA,,0.04,WeatherDisplay:10.37,2013-05-06 11:22:00,
2013-05-06 07:27:00,54.0,50.5,29.86,ENE,63,6.0,6.0,88,0.00,-RA,,0.04,WeatherDisplay:10.37,2013-05-06 11:27:00,
2013-05-06 07:32:00,54.0,50.5,29.86,NW,319,5.0,5.0,88,0.00,-RA,,0.04,WeatherDisplay:10.37,2013-05-06 11:32:00,
2013-05-06 07:37:00,54.0,50.5,29.86,NE,48,5.0,5.0,88,0.00,-RA,,0.04,WeatherDisplay:10.37,2013-05-06 11:37:00,
2013-05-06 07:42:00,54.0,50.5,29.87,ENE,60,3.5,3.5,88,0.00,-RA,,0.04,WeatherDisplay:10.37,2013-05-06 11:42:00,
2013-05-06 07:47:00,54.0,50.5,29.87,NNE,19,4.0,4.0,88,0.00,-RA,,0.04,WeatherDisplay:10.37,2013-05-06 11:47:00,
2013-05-06 07:52:00,54.0,50.5,29.88,NNE,16,3.5,3.5,88,0.00,-RA,,0.04,WeatherDisplay:10.37,2013-05-06 11:52:00,
2013-05-06 07:57:00,54.1,50.6,29.89,SSW,201,2.3,2.3,88,0.00,-RA,,0.04,WeatherDisplay:10.37,2013-05-06 11:57:00,
2013-05-06 08:02:00,53.2,49.7,29.89,South,189,6.0,6.0,88,0.01,-RA,,0.05,WeatherDisplay:10.37,2013-05-06 12:02:00,
2013-05-06 08:07:00,52.4,48.6,29.90,South,189,3.5,3.5,87,0.02,-RA,,0.06,WeatherDisplay:10.37,2013-05-06 12:07:00,
2013-05-06 08:12:00,51.9,48.2,29.90,SSW,192,3.5,3.5,87,0.02,-RA,,0.06,WeatherDisplay:10.37,2013-05-06 12:12:00,
2013-05-06 08:17:00,51.5,48.1,29.89,SSW,193,3.5,3.5,88,0.02,-RA,,0.06,WeatherDisplay:10.37,2013-05-06 12:17:00,
2013-05-06 08:22:00,51.4,48.0,29.90,SSW,193,4.0,4.0,88,0.02,-RA,,0.06,WeatherDisplay:10.37,2013-05-06 12:22:00,
2013-05-06 08:27:00,51.2,47.8,29.90,SSW,193,0.0,0.0,88,0.02,-RA,,0.06,WeatherDisplay:10.37,2013-05-06 12:27:00,
2013-05-06 08:32:00,51.3,47.9,29.90,SSW,193,0.0,0.0,88,0.02,-RA,,0.06,WeatherDisplay:10.37,2013-05-06 12:32:00,
2013-05-06 08:37:00,51.3,47.9,29.90,SSW,193,0.0,0.0,88,0.02,-RA,,0.06,WeatherDisplay:10.37,2013-05-06 12:37:00,
2013-05-06 08:42:00,51.4,48.0,29.91,SSW,193,0.0,0.0,88,0.02,-RA,,0.06,WeatherDisplay:10.37,2013-05-06 12:42:00,
2013-05-06 08:47:00,51.6,48.2,29.91,SSW,193,0.0,0.0,88,0.02,-RA,,0.06,WeatherDisplay:10.37,2013-05-06 12:47:00,
2013-05-06 08:52:00,51.7,48.3,29.91,SSW,193,0.0,0.0,88,0.02,-RA,,0.06,WeatherDisplay:10.37,2013-05-06 12:52:00,
2013-05-06 08:57:00,51.7,48.3,29.91,SSW,193,0.0,0.0,88,0.02,-RA,,0.06,WeatherDisplay:10.37,2013-05-06 12:57:00,
2013-05-06 09:02:00,51.8,48.4,29.91,SSW,193,0.0,0.0,88,0.01,OVC,,0.06,WeatherDisplay:10.37,2013-05-06 13:02:00,
2013-05-06 09:07:00,51.9,48.5,29.90,SSW,193,0.0,0.0,88,0.00,OVC,,0.06,WeatherDisplay:10.37,2013-05-06 13:07:00,
2013-05-06 09:12:00,51.9,48.5,29.91,SSW,193,0.0,0.0,88,0.00,OVC,,0.06,WeatherDisplay:10.37,2013-05-06 13:12:00,
2013-05-06 09:17:00,52.0,48.6,29.91,SSW,193,1.0,0.0,88,0.00,OVC,,0.06,WeatherDisplay:10.37,2013-05-06 13:17:00,
2013-05-06 09:22:00,52.1,48.7,29.90,SSW,193,1.1,0.0,88,0.00,OVC,,0.06,WeatherDisplay:10.37,2013-05-06 13:22:00,
2013-05-06 09:27:00,52.3,48.9,29.90,South,189,3.5,3.5,88,0.00,OVC,,0.06,WeatherDisplay:10.37,2013-05-06 13:27:00,
2013-05-06 09:32:00,52.5,49.0,29.90,South,188,0.0,0.0,88,0.00,OVC,,0.06,WeatherDisplay:10.37,2013-05-06 13:32:00,
2013-05-06 09:37:00,52.6,48.8,29.90,SSE,149,1.1,1.1,87,0.00,OVC,,0.06,WeatherDisplay:10.37,2013-05-06 13:37:00,
2013-05-06 09:42:00,52.8,49.0,29.90,SSE,150,2.0,2.0,87,0.00,OVC,,0.06,WeatherDisplay:10.37,2013-05-06 13:42:00,
2013-05-06 09:47:00,53.1,49.3,29.90,SSE,148,3.5,3.5,87,0.00,OVC,,0.06,WeatherDisplay:10.37,2013-05-06 13:47:00,
2013-05-06 09:52:00,53.2,49.4,29.90,ESE,112,6.0,6.0,87,0.01,RA,,0.07,WeatherDisplay:10.37,2013-05-06 13:52:00,
2013-05-06 09:57:00,53.3,49.5,29.90,ESE,103,6.0,6.0,87,0.01,RA,,0.07,WeatherDisplay:10.37,2013-05-06 13:57:00,
2013-05-06 10:02:00,53.5,49.7,29.91,East,97,5.0,5.0,87,0.01,OVC,,0.07,WeatherDisplay:10.37,2013-05-06 14:02:00,
2013-05-06 10:07:00,53.6,49.5,29.91,East,97,1.1,0.0,86,0.01,OVC,,0.07,WeatherDisplay:10.37,2013-05-06 14:07:00,
2013-05-06 10:12:00,53.7,49.6,29.91,East,97,2.0,2.0,86,0.01,OVC,,0.07,WeatherDisplay:10.37,2013-05-06 14:12:00,
2013-05-06 10:17:00,53.9,49.8,29.91,East,97,2.3,2.3,86,0.01,OVC,,0.07,WeatherDisplay:10.37,2013-05-06 14:17:00,
2013-05-06 10:22:00,54.2,49.8,29.91,East,97,2.3,0.0,85,0.01,OVC,,0.07,WeatherDisplay:10.37,2013-05-06 14:22:00,
2013-05-06 10:27:00,54.3,49.9,29.91,East,96,3.0,3.0,85,0.01,OVC,,0.07,WeatherDisplay:10.37,2013-05-06 14:27:00,
2013-05-06 10:32:00,54.4,49.7,29.91,East,94,3.0,3.0,84,0.01,OVC,,0.07,WeatherDisplay:10.37,2013-05-06 14:32:00,
2013-05-06 10:37:00,54.5,49.8,29.90,East,81,2.3,2.3,84,0.01,OVC,,0.07,WeatherDisplay:10.37,2013-05-06 14:37:00,
2013-05-06 10:42:00,54.7,49.6,29.91,ENE,78,3.0,3.0,83,0.01,OVC,,0.07,WeatherDisplay:10.37,2013-05-06 14:42:00,
2013-05-06 10:47:00,54.9,50.2,29.91,East,82,1.1,0.0,84,0.01,OVC,,0.07,WeatherDisplay:10.37,2013-05-06 14:47:00,
2013-05-06 10:52:00,55.4,50.6,29.92,East,82,0.0,0.0,84,0.00,OVC,,0.07,WeatherDisplay:10.37,2013-05-06 14:52:00,
2013-05-06 10:57:00,55.8,51.0,29.92,East,94,2.3,2.3,84,0.00,OVC,,0.07,WeatherDisplay:10.37,2013-05-06 14:57:00,
2013-05-06 11:02:00,56.0,51.2,29.91,East,81,4.0,4.0,84,0.00,-RA,,0.07,WeatherDisplay:10.37,2013-05-06 15:02:00,
2013-05-06 11:07:00,56.3,51.5,29.92,East,97,4.0,4.0,84,0.00,-RA,,0.07,WeatherDisplay:10.37,2013-05-06 15:07:00,
2013-05-06 11:12:00,56.6,51.5,29.92,NW,319,5.0,5.0,83,0.00,-RA,,0.07,WeatherDisplay:10.37,2013-05-06 15:12:00,
2013-05-06 11:17:00,56.8,51.7,29.92,NNE,21,3.5,3.5,83,0.00,-RA,,0.07,WeatherDisplay:10.37,2013-05-06 15:17:00,
2013-05-06 11:22:00,56.7,51.3,29.91,East,87,5.8,5.8,82,0.00,-RA,,0.07,WeatherDisplay:10.37,2013-05-06 15:22:00,
2013-05-06 11:27:00,56.7,51.6,29.92,WNW,299,3.5,3.5,83,0.00,-RA,,0.07,WeatherDisplay:10.37,2013-05-06 15:27:00,
2013-05-06 11:32:00,56.6,51.5,29.92,North,357,4.0,4.0,83,0.00,-RA,,0.07,WeatherDisplay:10.37,2013-05-06 15:32:00,
2013-05-06 11:37:00,56.7,51.6,29.91,NNE,22,5.8,5.8,83,0.00,-RA,,0.07,WeatherDisplay:10.37,2013-05-06 15:37:00,
2013-05-06 11:42:00,56.9,52.1,29.91,NNE,12,7.0,7.0,84,0.00,-RA,,0.07,WeatherDisplay:10.37,2013-05-06 15:42:00,
2013-05-06 11:47:00,57.2,52.4,29.90,ENE,64,8.1,8.1,84,0.00,-RA,,0.07,WeatherDisplay:10.37,2013-05-06 15:47:00,
2013-05-06 11:52:00,57.7,52.9,29.90,NE,43,10.0,10.0,84,0.00,-RA,,0.07,WeatherDisplay:10.37,2013-05-06 15:52:00,
2013-05-06 11:57:00,58.5,53.0,29.90,NW,320,10.4,10.4,82,0.00,-RA,,0.07,WeatherDisplay:10.37,2013-05-06 15:57:00,
2013-05-06 12:02:00,58.4,52.6,29.90,NNW,347,5.0,5.0,81,0.00,-RA,,0.07,WeatherDisplay:10.37,2013-05-06 16:02:00,
2013-05-06 12:07:00,58.5,52.7,29.89,ENE,66,12.0,12.0,81,0.00,OVC,,0.07,WeatherDisplay:10.37,2013-05-06 16:07:00,
2013-05-06 12:12:00,58.4,52.9,29.89,NNE,12,6.0,6.0,82,0.00,OVC,,0.07,WeatherDisplay:10.37,2013-05-06 16:12:00,
2013-05-06 12:17:00,58.2,52.4,29.89,ENE,69,10.4,10.4,81,0.00,OVC,,0.07,WeatherDisplay:10.37,2013-05-06 16:17:00,
2013-05-06 12:22:00,58.2,52.7,29.89,ENE,71,13.0,13.0,82,0.00,OVC,,0.07,WeatherDisplay:10.37,2013-05-06 16:22:00,
2013-05-06 12:27:00,58.4,52.9,29.89,North,358,12.0,12.0,82,0.00,OVC,,0.07,WeatherDisplay:10.37,2013-05-06 16:27:00,
2013-05-06 12:32:00,58.5,52.7,29.89,WSW,247,10.0,10.0,81,0.00,OVC,,0.07,WeatherDisplay:10.37,2013-05-06 16:32:00,
2013-05-06 12:37:00,58.8,53.0,29.90,NNW,340,12.7,12.7,81,0.00,OVC,,0.07,WeatherDisplay:10.37,2013-05-06 16:37:00,
2013-05-06 12:42:00,59.0,52.8,29.90,WNW,294,5.0,5.0,80,0.00,OVC,,0.07,WeatherDisplay:10.37,2013-05-06 16:42:00,
2013-05-06 12:47:00,59.0,52.8,29.91,NNW,343,8.1,8.1,80,0.00,OVC,,0.07,WeatherDisplay:10.37,2013-05-06 16:47:00,
2013-05-06 12:52:00,59.0,52.8,29.90,SW,228,5.0,5.0,80,0.00,OVC,,0.07,WeatherDisplay:10.37,2013-05-06 16:52:00,
2013-05-06 12:57:00,59.3,53.1,29.90,West,263,4.6,4.6,80,0.00,OVC,,0.07,WeatherDisplay:10.37,2013-05-06 16:57:00,
2013-05-06 13:02:00,59.6,53.4,29.90,ENE,66,12.0,12.0,80,0.00,BKN,,0.07,WeatherDisplay:10.37,2013-05-06 17:02:00,
2013-05-06 13:07:00,60.1,53.9,29.90,NE,42,8.0,8.0,80,0.00,BKN,,0.07,WeatherDisplay:10.37,2013-05-06 17:07:00,
2013-05-06 13:12:00,60.0,53.5,29.90,SSW,204,7.0,7.0,79,0.00,BKN,,0.07,WeatherDisplay:10.37,2013-05-06 17:12:00,
2013-05-06 13:17:00,60.1,53.6,29.90,ENE,62,6.9,6.9,79,0.00,BKN,,0.07,WeatherDisplay:10.37,2013-05-06 17:17:00,
2013-05-06 13:22:00,60.0,53.5,29.90,NNE,25,6.0,6.0,79,0.00,BKN,,0.07,WeatherDisplay:10.37,2013-05-06 17:22:00,
2013-05-06 13:27:00,59.6,52.7,29.90,NNE,26,3.5,3.5,78,0.00,BKN,,0.07,WeatherDisplay:10.37,2013-05-06 17:27:00,
2013-05-06 13:32:00,59.8,52.9,29.90,NNW,338,11.5,11.5,78,0.00,BKN,,0.07,WeatherDisplay:10.37,2013-05-06 17:32:00,
2013-05-06 13:37:00,60.2,53.3,29.90,WNW,286,5.0,5.0,78,0.00,BKN,,0.07,WeatherDisplay:10.37,2013-05-06 17:37:00,
2013-05-06 13:42:00,61.1,54.2,29.90,South,182,15.0,15.0,78,0.00,BKN,,0.07,WeatherDisplay:10.37,2013-05-06 17:42:00,
2013-05-06 13:47:00,61.5,53.9,29.90,NE,52,7.0,7.0,76,0.00,BKN,,0.07,WeatherDisplay:10.37,2013-05-06 17:47:00,
2013-05-06 13:52:00,61.8,53.8,29.90,WNW,286,5.8,5.8,75,0.00,BKN,,0.07,WeatherDisplay:10.37,2013-05-06 17:52:00,
2013-05-06 13:57:00,62.2,54.2,29.90,NE,35,4.0,4.0,75,0.00,BKN,,0.07,WeatherDisplay:10.37,2013-05-06 17:57:00,
2013-05-06 14:02:00,62.2,53.8,29.89,SE,146,7.0,7.0,74,0.00,OVC,,0.07,WeatherDisplay:10.37,2013-05-06 18:02:00,
2013-05-06 14:07:00,62.8,54.0,29.90,SSE,163,6.9,6.9,73,0.00,OVC,,0.07,WeatherDisplay:10.37,2013-05-06 18:07:00,
2013-05-06 14:12:00,63.7,54.9,29.89,SSE,153,7.0,7.0,73,0.00,OVC,,0.07,WeatherDisplay:10.37,2013-05-06 18:12:00,
2013-05-06 14:17:00,64.3,54.7,29.89,West,264,4.0,4.0,71,0.00,OVC,,0.07,WeatherDisplay:10.37,2013-05-06 18:17:00,
2013-05-06 14:22:00,64.9,54.9,29.89,East,91,5.0,5.0,70,0.00,OVC,,0.07,WeatherDisplay:10.37,2013-05-06 18:22:00,
2013-05-06 14:27:00,64.6,54.2,29.89,SSE,158,5.0,5.0,69,0.00,OVC,,0.07,WeatherDisplay:10.37,2013-05-06 18:27:00,
2013-05-06 14:32:00,64.7,55.1,29.89,SW,221,5.0,5.0,71,0.00,OVC,,0.07,WeatherDisplay:10.37,2013-05-06 18:32:00,
2013-05-06 14:37:00,65.4,55.0,29.89,ESE,114,6.0,6.0,69,0.00,OVC,,0.07,WeatherDisplay:10.37,2013-05-06 18:37:00,
2013-05-06 14:42:00,65.9,54.2,29.89,NW,325,7.0,7.0,66,0.00,OVC,,0.07,WeatherDisplay:10.37,2013-05-06 18:42:00,
2013-05-06 14:47:00,65.8,54.5,29.89,South,186,6.0,6.0,67,0.00,OVC,,0.07,WeatherDisplay:10.37,2013-05-06 18:47:00,
2013-05-06 14:52:00,66.1,54.8,29.89,NNE,12,5.0,5.0,67,0.00,OVC,,0.07,WeatherDisplay:10.37,2013-05-06 18:52:00,
2013-05-06 14:57:00,65.5,54.2,29.89,NNW,329,5.0,5.0,67,0.00,OVC,,0.07,WeatherDisplay:10.37,2013-05-06 18:57:00,
2013-05-06 15:02:00,65.7,54.8,29.89,North,2,6.0,6.0,68,0.00,OVC,,0.07,WeatherDisplay:10.37,2013-05-06 19:02:00,
2013-05-06 15:07:00,65.9,54.2,29.88,North,2,6.0,6.0,66,0.00,OVC,,0.07,WeatherDisplay:10.37,2013-05-06 19:07:00,
2013-05-06 15:12:00,65.4,53.7,29.88,NNE,18,11.5,11.5,66,0.00,OVC,,0.07,WeatherDisplay:10.37,2013-05-06 19:12:00,
2013-05-06 15:17:00,65.1,53.5,29.88,NNW,342,5.0,5.0,66,0.00,OVC,,0.07,WeatherDisplay:10.37,2013-05-06 19:17:00,
2013-05-06 15:22:00,65.2,54.0,29.88,NNW,345,6.0,6.0,67,0.00,OVC,,0.07,WeatherDisplay:10.37,2013-05-06 19:22:00,
2013-05-06 15:27:00,65.9,54.6,29.88,North,357,4.0,4.0,67,0.00,OVC,,0.07,WeatherDisplay:10.37,2013-05-06 19:27:00,
2013-05-06 15:32:00,65.8,53.3,29.88,ENE,63,11.0,11.0,64,0.00,OVC,,0.07,WeatherDisplay:10.37,2013-05-06 19:32:00,
2013-05-06 15:37:00,65.7,54.0,29.88,NE,47,3.5,3.5,66,0.00,OVC,,0.07,WeatherDisplay:10.37,2013-05-06 19:37:00,
2013-05-06 15:42:00,66.0,53.5,29.87,NE,47,12.0,12.0,64,0.00,OVC,,0.07,WeatherDisplay:10.37,2013-05-06 19:42:00,
2013-05-06 15:47:00,66.5,54.4,29.87,ENE,59,10.0,10.0,65,0.00,OVC,,0.07,WeatherDisplay:10.37,2013-05-06 19:47:00,
2013-05-06 15:52:00,66.5,53.9,29.87,ENE,58,5.0,5.0,64,0.00,OVC,,0.07,WeatherDisplay:10.37,2013-05-06 19:52:00,
2013-05-06 15:57:00,66.1,54.0,29.87,NNE,20,6.0,6.0,65,0.00,OVC,,0.07,WeatherDisplay:10.37,2013-05-06 19:57:00,
2013-05-06 16:02:00,66.8,54.2,29.87,NE,36,5.8,5.8,64,0.00,SCT,,0.07,WeatherDisplay:10.37,2013-05-06 20:02:00,
2013-05-06 16:07:00,66.9,53.9,29.87,NE,44,9.2,9.2,63,0.00,SCT,,0.07,WeatherDisplay:10.37,2013-05-06 20:07:00,
2013-05-06 16:12:00,66.7,54.6,29.86,NE,49,10.4,10.4,65,0.00,SCT,,0.07,WeatherDisplay:10.37,2013-05-06 20:12:00,
2013-05-06 16:17:00,66.0,53.9,29.86,ENE,70,12.0,12.0,65,0.00,SCT,,0.07,WeatherDisplay:10.37,2013-05-06 20:17:00,
2013-05-06 16:22:00,65.8,54.5,29.86,NE,52,7.0,7.0,67,0.00,SCT,,0.07,WeatherDisplay:10.37,2013-05-06 20:22:00,
2013-05-06 16:27:00,66.1,54.4,29.86,NNW,339,5.0,5.0,66,0.00,SCT,,0.07,WeatherDisplay:10.37,2013-05-06 20:27:00,
2013-05-06 16:32:00,65.9,54.2,29.86,West,264,9.2,9.2,66,0.00,SCT,,0.07,WeatherDisplay:10.37,2013-05-06 20:32:00,
2013-05-06 16:37:00,66.0,54.3,29.86,NE,49,13.0,13.0,66,0.00,SCT,,0.07,WeatherDisplay:10.37,2013-05-06 20:37:00,
2013-05-06 16:42:00,66.2,54.5,29.85,NW,317,6.9,6.9,66,0.00,SCT,,0.07,WeatherDisplay:10.37,2013-05-06 20:42:00,
2013-05-06 16:47:00,65.3,54.1,29.85,ENE,62,6.0,6.0,67,0.00,SCT,,0.07,WeatherDisplay:10.37,2013-05-06 20:47:00,
2013-05-06 16:52:00,65.0,54.6,29.85,NE,41,10.4,10.4,69,0.00,SCT,,0.07,WeatherDisplay:10.37,2013-05-06 20:52:00,
2013-05-06 16:57:00,65.3,55.3,29.84,NE,56,10.4,10.4,70,0.00,SCT,,0.07,WeatherDisplay:10.37,2013-05-06 20:57:00,
2013-05-06 17:02:00,65.6,54.3,29.84,East,95,8.0,8.0,67,0.00,BKN,,0.07,WeatherDisplay:10.37,2013-05-06 21:02:00,
2013-05-06 17:07:00,66.1,54.0,29.85,NE,37,18.4,18.4,65,0.00,BKN,,0.07,WeatherDisplay:10.37,2013-05-06 21:07:00,
2013-05-06 17:12:00,65.6,54.3,29.86,ENE,62,12.0,12.0,67,0.00,BKN,,0.07,WeatherDisplay:10.37,2013-05-06 21:12:00,
2013-05-06 17:17:00,64.9,54.1,29.86,East,85,10.4,10.4,68,0.00,BKN,,0.07,WeatherDisplay:10.37,2013-05-06 21:17:00,
2013-05-06 17:22:00,64.8,54.4,29.86,ENE,70,7.0,7.0,69,0.00,BKN,,0.07,WeatherDisplay:10.37,2013-05-06 21:22:00,
2013-05-06 17:27:00,64.6,54.2,29.86,NE,45,4.6,4.6,69,0.00,BKN,,0.07,WeatherDisplay:10.37,2013-05-06 21:27:00,
2013-05-06 17:32:00,64.5,54.5,29.86,ENE,68,4.6,4.6,70,0.00,BKN,,0.07,WeatherDisplay:10.37,2013-05-06 21:32:00,
2013-05-06 17:37:00,64.3,54.3,29.87,East,82,3.5,3.5,70,0.00,BKN,,0.07,WeatherDisplay:10.37,2013-05-06 21:37:00,
2013-05-06 17:42:00,64.4,54.4,29.87,ENE,74,3.5,3.5,70,0.00,BKN,,0.07,WeatherDisplay:10.37,2013-05-06 21:42:00,
2013-05-06 17:47:00,60.4,48.2,29.88,West,268,6.9,6.9,64,0.00,BKN,,0.07,WeatherDisplay:10.37,2013-05-06 21:47:00,
2013-05-06 17:52:00,57.9,48.2,29.88,SW,236,5.0,5.0,70,0.00,BKN,,0.07,WeatherDisplay:10.37,2013-05-06 21:52:00,
2013-05-06 17:57:00,57.3,49.4,29.88,SW,236,18.4,0.0,75,0.03,RA,,0.11,WeatherDisplay:10.37,2013-05-06 21:57:00,
2013-05-06 18:02:00,55.9,48.4,29.89,SW,236,5.0,5.0,76,0.14,-RA,,0.22,WeatherDisplay:10.37,2013-05-06 22:02:00,
2013-05-06 18:07:00,54.9,48.8,29.92,South,190,2.0,2.0,80,0.31,-RA,,0.40,WeatherDisplay:10.37,2013-05-06 22:07:00,
2013-05-06 18:12:00,53.6,47.9,29.92,SSW,201,4.0,4.0,81,0.40,-RA,,0.47,WeatherDisplay:10.37,2013-05-06 22:12:00,
2013-05-06 18:17:00,52.3,47.3,29.90,SW,234,12.0,12.0,83,0.46,-RA,,0.53,WeatherDisplay:10.37,2013-05-06 22:17:00,
2013-05-06 18:22:00,52.1,47.7,29.90,SSW,194,2.3,2.3,85,0.50,-RA,,0.57,WeatherDisplay:10.37,2013-05-06 22:22:00,
2013-05-06 18:27:00,52.0,47.9,29.91,SSW,195,1.1,0.0,86,0.51,-RA,,0.58,WeatherDisplay:10.37,2013-05-06 22:27:00,
2013-05-06 18:32:00,52.0,47.9,29.90,SSW,195,2.3,2.3,86,0.51,-RA,,0.58,WeatherDisplay:10.37,2013-05-06 22:32:00,
2013-05-06 18:37:00,52.0,48.3,29.90,SSW,195,0.0,0.0,87,0.51,-RA,,0.58,WeatherDisplay:10.37,2013-05-06 22:37:00,
2013-05-06 18:42:00,52.0,48.3,29.90,SSW,195,3.0,3.0,87,0.51,-RA,,0.58,WeatherDisplay:10.37,2013-05-06 22:42:00,
2013-05-06 18:47:00,52.0,48.3,29.90,SSW,196,2.0,2.0,87,0.51,-RA,,0.58,WeatherDisplay:10.37,2013-05-06 22:47:00,
2013-05-06 18:52:00,52.0,48.6,29.89,SSW,196,3.5,3.5,88,0.51,-RA,,0.58,WeatherDisplay:10.37,2013-05-06 22:52:00,
2013-05-06 18:57:00,52.0,48.6,29.89,SSW,195,4.0,4.0,88,0.48,-RA,,0.58,WeatherDisplay:10.37,2013-05-06 22:57:00,
2013-05-06 19:02:00,51.9,48.5,29.89,SSW,196,3.5,3.5,88,0.37,-RA,,0.58,WeatherDisplay:10.37,2013-05-06 23:02:00,
2013-05-06 19:07:00,51.9,48.5,29.89,SSW,196,1.1,1.1,88,0.20,-RA,,0.58,WeatherDisplay:10.37,2013-05-06 23:07:00,
2013-05-06 19:12:00,52.1,48.7,29.89,SSW,195,3.0,3.0,88,0.11,-RA,,0.58,WeatherDisplay:10.37,2013-05-06 23:12:00,
2013-05-06 19:17:00,52.2,48.8,29.89,SSW,196,3.0,3.0,88,0.05,-RA,,0.58,WeatherDisplay:10.37,2013-05-06 23:17:00,
2013-05-06 19:22:00,52.3,48.9,29.90,SSW,196,2.0,2.0,88,0.01,-RA,,0.58,WeatherDisplay:10.37,2013-05-06 23:22:00,
2013-05-06 19:27:00,52.4,49.3,29.90,SSW,195,2.3,2.3,89,0.00,-RA,,0.58,WeatherDisplay:10.37,2013-05-06 23:27:00,
2013-05-06 19:32:00,52.4,49.3,29.90,SSW,196,3.5,3.5,89,0.00,-RA,,0.58,WeatherDisplay:10.37,2013-05-06 23:32:00,
2013-05-06 19:37:00,52.5,49.4,29.90,SSW,196,2.3,2.3,89,0.00,-RA,,0.58,WeatherDisplay:10.37,2013-05-06 23:37:00,
2013-05-06 19:42:00,52.4,49.3,29.89,ESE,121,6.0,6.0,89,0.00,-RA,,0.58,WeatherDisplay:10.37,2013-05-06 23:42:00,
2013-05-06 19:47:00,52.6,49.4,29.89,East,85,3.5,3.5,89,0.01,-RA,,0.59,WeatherDisplay:10.37,2013-05-06 23:47:00,
2013-05-06 19:52:00,52.5,49.4,29.90,East,83,2.3,2.3,89,0.02,-RA,,0.60,WeatherDisplay:10.37,2013-05-06 23:52:00,
2013-05-06 19:57:00,52.5,49.4,29.90,East,82,1.1,1.1,89,0.03,-RA,,0.61,WeatherDisplay:10.37,2013-05-06 23:57:00,
2013-05-06 20:02:00,52.4,49.3,29.90,ENE,75,3.0,3.0,89,0.03,RA,,0.61,WeatherDisplay:10.37,2013-05-07 00:02:00,
2013-05-06 20:07:00,52.4,49.3,29.90,ENE,76,2.0,2.0,89,0.05,RA,,0.63,WeatherDisplay:10.37,2013-05-07 00:07:00,
2013-05-06 20:12:00,52.5,49.4,29.90,ENE,76,0.0,0.0,89,0.07,RA,,0.66,WeatherDisplay:10.37,2013-05-07 00:12:00,
2013-05-06 20:17:00,52.6,49.4,29.90,ENE,76,3.5,3.5,89,0.11,RA,,0.69,WeatherDisplay:10.37,2013-05-07 00:17:00,
2013-05-06 20:22:00,52.9,49.7,29.91,ENE,76,1.1,0.0,89,0.12,RA,,0.70,WeatherDisplay:10.37,2013-05-07 00:22:00,
2013-05-06 20:27:00,53.0,49.8,29.92,SE,137,4.6,4.6,89,0.19,RA,,0.78,WeatherDisplay:10.37,2013-05-07 00:27:00,
2013-05-06 20:32:00,53.1,49.9,29.92,South,189,6.0,6.0,89,0.31,RA,,0.89,WeatherDisplay:10.37,2013-05-07 00:32:00,
2013-05-06 20:37:00,53.2,50.0,29.92,SSW,193,2.3,2.3,89,0.38,RA,,0.97,WeatherDisplay:10.37,2013-05-07 00:37:00,
2013-05-06 20:42:00,53.4,50.5,29.93,SSW,193,2.3,0.0,90,0.41,RA,,0.99,WeatherDisplay:10.37,2013-05-07 00:42:00,
2013-05-06 20:47:00,53.3,50.4,29.92,SSW,193,0.0,0.0,90,0.44,RA,,1.03,WeatherDisplay:10.37,2013-05-07 00:47:00,
2013-05-06 20:52:00,53.2,50.3,29.93,SSW,193,0.0,0.0,90,0.45,RA,,1.05,WeatherDisplay:10.37,2013-05-07 00:52:00,
2013-05-06 20:57:00,53.3,50.4,29.93,SSW,193,0.0,0.0,90,0.46,RA,,1.08,WeatherDisplay:10.37,2013-05-07 00:57:00,
2013-05-06 21:02:00,53.3,50.4,29.92,SSW,193,2.3,0.0,90,0.47, +RA,,1.08,WeatherDisplay:10.37,2013-05-07 01:02:00,
2013-05-06 21:07:00,53.3,50.4,29.92,SSW,193,0.0,0.0,90,0.45, +RA,,1.08,WeatherDisplay:10.37,2013-05-07 01:07:00,
2013-05-06 21:12:00,53.3,50.4,29.92,SSW,193,0.0,0.0,90,0.43, +RA,,1.08,WeatherDisplay:10.37,2013-05-07 01:12:00,
2013-05-06 21:17:00,53.4,50.5,29.92,SSW,193,0.0,0.0,90,0.40, +RA,,1.09,WeatherDisplay:10.37,2013-05-07 01:17:00,
2013-05-06 21:22:00,53.3,50.4,29.92,SSW,193,0.0,0.0,90,0.42, +RA,,1.12,WeatherDisplay:10.37,2013-05-07 01:22:00,
2013-05-06 21:27:00,53.2,50.3,29.92,SSW,193,2.3,2.3,90,0.36, +RA,,1.13,WeatherDisplay:10.37,2013-05-07 01:27:00,
2013-05-06 21:32:00,53.2,50.3,29.92,South,191,3.5,3.5,90,0.24, +RA,,1.13,WeatherDisplay:10.37,2013-05-07 01:32:00,
2013-05-06 21:37:00,53.0,50.1,29.92,ESE,122,4.0,4.0,90,0.17, +RA,,1.13,WeatherDisplay:10.37,2013-05-07 01:37:00,
2013-05-06 21:42:00,52.8,49.9,29.92,ESE,122,0.0,0.0,90,0.14, +RA,,1.13,WeatherDisplay:10.37,2013-05-07 01:42:00,
2013-05-06 21:47:00,52.7,49.8,29.93,ESE,122,0.0,0.0,90,0.10, +RA,,1.13,WeatherDisplay:10.37,2013-05-07 01:47:00,
2013-05-06 21:52:00,52.6,49.8,29.93,ESE,122,2.0,2.0,90,0.08, +RA,,1.13,WeatherDisplay:10.37,2013-05-07 01:52:00,
2013-05-06 21:57:00,52.7,49.8,29.93,ESE,122,3.5,3.5,90,0.06, +RA,,1.13,WeatherDisplay:10.37,2013-05-07 01:57:00,
2013-05-06 22:02:00,52.7,49.8,29.93,ESE,122,2.3,0.0,90,0.05, +RA,,1.13,WeatherDisplay:10.37,2013-05-07 02:02:00,
2013-05-06 22:07:00,52.7,49.8,29.93,ESE,122,2.3,2.3,90,0.05, +RA,,1.13,WeatherDisplay:10.37,2013-05-07 02:07:00,
2013-05-06 22:12:00,52.8,49.9,29.93,ESE,122,0.0,0.0,90,0.06, +RA,,1.14,WeatherDisplay:10.37,2013-05-07 02:12:00,
2013-05-06 22:17:00,52.7,49.8,29.93,ESE,122,1.1,0.0,90,0.05, +RA,,1.14,WeatherDisplay:10.37,2013-05-07 02:17:00,
2013-05-06 22:22:00,52.7,49.8,29.94,ESE,122,4.0,4.0,90,0.02, +RA,,1.14,WeatherDisplay:10.37,2013-05-07 02:22:00,
2013-05-06 22:27:00,52.7,49.8,29.94,ESE,122,2.3,2.3,90,0.01, +RA,,1.14,WeatherDisplay:10.37,2013-05-07 02:27:00,
2013-05-06 22:32:00,52.8,49.9,29.94,ESE,122,1.1,1.1,90,0.01, +RA,,1.14,WeatherDisplay:10.37,2013-05-07 02:32:00,
2013-05-06 22:37:00,52.8,49.9,29.94,ESE,122,2.3,2.3,90,0.01, +RA,,1.14,WeatherDisplay:10.37,2013-05-07 02:37:00,
2013-05-06 22:42:00,52.8,49.9,29.94,ESE,122,1.1,1.1,90,0.01, +RA,,1.14,WeatherDisplay:10.37,2013-05-07 02:42:00,
2013-05-06 22:47:00,52.8,49.9,29.94,ESE,122,0.0,0.0,90,0.01, +RA,,1.14,WeatherDisplay:10.37,2013-05-07 02:47:00,
2013-05-06 22:52:00,52.9,50.0,29.93,ESE,122,0.0,0.0,90,0.01, +RA,,1.14,WeatherDisplay:10.37,2013-05-07 02:52:00,
2013-05-06 22:57:00,52.9,50.0,29.94,ESE,122,0.0,0.0,90,0.01, +RA,,1.14,WeatherDisplay:10.37,2013-05-07 02:57:00,
2013-05-06 23:02:00,53.0,50.1,29.94,ESE,122,0.0,0.0,90,0.01,-RA,,1.14,WeatherDisplay:10.37,2013-05-07 03:02:00,
2013-05-06 23:07:00,53.0,50.1,29.93,ESE,122,0.0,0.0,90,0.01,-RA,,1.14,WeatherDisplay:10.37,2013-05-07 03:07:00,
2013-05-06 23:12:00,52.9,50.0,29.93,ESE,122,0.0,0.0,90,0.00,-RA,,1.14,WeatherDisplay:10.37,2013-05-07 03:12:00,
2013-05-06 23:17:00,53.1,50.2,29.93,ESE,122,1.0,1.0,90,0.00,-RA,,1.14,WeatherDisplay:10.37,2013-05-07 03:17:00,
2013-05-06 23:22:00,53.0,50.1,29.93,ESE,122,4.0,4.0,90,0.00,-RA,,1.14,WeatherDisplay:10.37,2013-05-07 03:22:00,
2013-05-06 23:27:00,53.1,50.2,29.92,ESE,122,0.0,0.0,90,0.00,-RA,,1.14,WeatherDisplay:10.37,2013-05-07 03:27:00,
2013-05-06 23:32:00,53.1,50.2,29.92,ESE,122,3.5,3.5,90,0.00,-RA,,1.14,WeatherDisplay:10.37,2013-05-07 03:32:00,
2013-05-06 23:37:00,53.2,50.3,29.92,ESE,122,0.0,0.0,90,0.00,-RA,,1.14,WeatherDisplay:10.37,2013-05-07 03:37:00,
2013-05-06 23:42:00,53.2,50.3,29.91,ESE,122,1.1,1.1,90,0.00,-RA,,1.14,WeatherDisplay:10.37,2013-05-07 03:42:00,
2013-05-06 23:47:00,53.2,50.3,29.91,ESE,122,3.5,3.5,90,0.00,-RA,,1.14,WeatherDisplay:10.37,2013-05-07 03:47:00,
2013-05-06 23:52:00,53.2,50.3,29.91,ESE,122,2.3,2.3,90,0.00,-RA,,1.14,WeatherDisplay:10.37,2013-05-07 03:52:00,
2013-05-06 23:57:00,53.3,50.4,29.91,ESE,122,4.0,4.0,90,0.00,-RA,,1.14,WeatherDisplay:10.37,2013-05-07 03:57:00,